Regional Weather Roundup
Issued by NWS

Home | Current Version | Previous Version | Text Only | Print | Product List | Glossary On
Versions: 1 2 3 4 5 6 7 8 9 10 11 12 13 14 15 16 17 18 19 20 21 22 23 24 25 26 27 28 29 30 31 32 33 34 35 36 37 38 39 40 41 42 43 44 45 46 47 48 49 50
000
ASUS43 KDTX 110110
RWRMI
MICHIGAN HOURLY REGIONAL WEATHER ROUNDUP
NATIONAL WEATHER SERVICE DETROIT/PONTIAC MI
ISSUED BY NATIONAL WEATHER SERVICE GRAND RAPIDS MI
800 PM EST SUN DEC 10 2017

NOTE: "FAIR" INDICATES FEW OR NO CLOUDS BELOW 12,000 FEET WITH NO
SIGNIFICANT WEATHER AND/OR OBSTRUCTION TO VISIBILITY.

MIZ047>049-052>055-059>063-066>070-074>076-081>083-110200-
SOUTHEAST LOWER MICHIGAN

CITY           SKY/WX    TMP DP  RH WIND       PRES   REMARKS
ADRIAN         CLOUDY    28  20  71 W7        29.96R WCI  21
ALMA           CLOUDY    26  24  91 W6        29.95R WCI  19
ANN ARBOR      CLOUDY    27  22  81 SW9       29.94R WCI  18
BAD AXE        FLURRIES  25  23  91 W8        29.90R WCI  17
DETROIT CITY   CLOUDY    28  20  71 W10       29.95R WCI  19
DETROIT        CLOUDY    30  22  72 SW14      29.95R WCI  19
FLINT          LGT SNOW  25  22  88 W9        29.94R FOG     WCI  15
GROSSE ILE     CLOUDY    30  22  72 W7        29.94R WCI  23
HILLSDALE      CLOUDY    28  23  80 W7        29.92S WCI  21
HOWELL         CLOUDY    26  25  94 W7        29.93R FOG     WCI  19

CITY           SKY/WX    TMP DP  RH WIND       PRES   REMARKS
JACKSON        CLOUDY    27  22  81 W8        29.94R WCI  19
LANSING        CLOUDY    26  24  92 NW8       29.95R WCI  18
MASON          CLOUDY    27  23  84 W6        29.94R FOG     WCI  21
MONROE         CLOUDY    29  21  72 SW8       29.95R WCI  21
MT. CLEMENS    CLOUDY    27  23  84 W8        29.92R WCI  19
PONTIAC        LGT SNOW  25  24  96 SW6       29.90S WCI  18
PORT HOPE        N/A     27  23  85 SW9       29.87R WCI  18
PORT HURON     FLURRIES  25  21  86 W6        29.92S WCI  18
TRI CITIES     CLOUDY    26  25  96 W10       29.93R WCI  16
YPSILANTI      CLOUDY    29  23  78 SW10      29.95R WCI  20
$$
MIZ043>046-050>051-056>058-064>065-071>073-077>080-110200-
SOUTHWEST LOWER MICHIGAN

CITY           SKY/WX    TMP DP  RH WIND       PRES   REMARKS
BATTLE CREEK   CLOUDY    28  24  85 NW6       29.96R WCI  22
BENTON HARBOR  CLOUDY    32  22  66 NW12G20   30.00R WCI  23
BIG RAPIDS     FLURRIES  25  20  82 NW6       29.94R WCI  18
COLDWATER      CLOUDY    28  25  87 W6        29.95S WCI  22
HOLLAND        CLOUDY    29  21  72 VRB5      30.00R WCI  24
GRAND RAPIDS   FLURRIES  28  22  78 NW9       29.97R WCI  19
KALAMAZOO      CLOUDY    30  24  78 W9        29.97R WCI  22
MARSHALL       MIX PCPN  27  26  96 CALM      29.94S
MOUNT PLEASANT CLOUDY    27  22  82 W6        29.93R WCI  20
MUSKEGON       FLURRIES  29  20  69 CALM      29.99R
STURGIS        CLOUDY    29  24  82 W5        29.96S WCI  24
$$
MIZ016>042-110200-
NORTHERN LOWER MICHIGAN

CITY           SKY/WX    TMP DP  RH WIND       PRES   REMARKS
ALPENA         CLOUDY    20  12  71 NW13      29.94R WCI   7
BEAVER ISLAND  CLOUDY    19   9  66 NW10G24   30.00R WCI   7
BELLAIRE       CLOUDY    20  14  75 NW8       30.00R WCI  11
CADILLAC       FLURRIES  22  17  82 N9G18     29.92R WCI  12
CHARLEVOIX     CLOUDY    20  11  69 N13G22    30.02R WCI   7
GAYLORD        CLOUDY    15   7  70 VRB6G18   29.92R WCI   6
HOUGHTON LAKE  FLURRIES  22  17  81 N12       29.92R WCI  10
MANISTEE       FLURRIES  27  19  72 N6        29.98R WCI  20
OSCODA         CLOUDY    24  16  71 N9        29.92R WCI  14
TRAVERSE CITY  FLURRIES  24  13  62 N15G22    29.98R WCI  11
LUDINGTON      CLOUDY    29  19  65 N9G17     29.97R WCI  21
$$
MIZ007>008-015-110200-
EASTERN UPPER MICHIGAN

CITY           SKY/WX    TMP DP  RH WIND       PRES   REMARKS
KINROSS        FLURRIES   9   4  80 NE5       29.97R WCI   1
MACKINAC ISLAN MOCLDY    17   5  61 NW14G22   29.97R WCI   2
NEWBERRY       CLOUDY    13  10  87 NW3       29.97R
S. S. MARIE    MIX PCPN  10   0  63 N8        29.97R WCI  -2
$$
MIZ004>006-011>014-085-110200-
CENTRAL UPPER MICHIGAN

CITY           SKY/WX    TMP DP  RH WIND       PRES   REMARKS
MANISTIQUE     CLOUDY    16   7  68 W3        30.00R
ESCANABA       PTCLDY    15   5  64 W10       30.04R WCI   2
MENOMINEE      CLOUDY    22  12  65 N7        30.05R WCI  13
SAWYER-GWINN   CLOUDY    14   7  73 NW6       29.99R WCI   5
$$
MIZ001>003-009>011-084-110200-
WESTERN UPPER MICHIGAN

CITY           SKY/WX    TMP DP  RH WIND       PRES   REMARKS
HOUGHTON       CLOUDY     9   1  70 CALM      29.99S
COPPER HARBOR    N/A     16   8  71 N15       30.03R WCI   1
IRONWOOD       CLOUDY    16  11  80 SW6       30.00F WCI   7
$$

ABBREVIATIONS USED IN REMARKS
   TC - TEMPERATURE IN CELSIUS
  WCI - WIND CHILL INDEX
   HX - HEAT INDEX
  VSB - VISIBILITY





USA.gov is the U.S. government's official web portal to all federal, state and local government web resources and services.